User: anonymous   Login
Location: Unspecified
(41.1637°N, 0.0000°E)
Time: 22:37:16
(UTC+00:00)
Language:

ZACube-1 - Orbit

View from above orbital plane
View from above orbital plane
View from above satellite
View from above satellite

Ground track
Ground track

The orbit data is extracted from the following two-line orbital elements,

1 39417U 13066B   19230.91230673 +.00000089 +00000-0 +17574-4 0  9991
2 39417 097.5622 240.9737 0058599 191.7757 168.2090 14.81135732310108
Epoch (UTC): 18 August 2019 21:53:43
Eccentricity: 0.0058599
inclination: 97.5622°
perigee height: 585 km
apogee height: 667 km
right ascension of ascending node: 240.9737°
argument of perigee: 191.7757°
revolutions per day: 14.81135732
mean anomaly at epoch: 168.2090°
orbit number at epoch: 31010

The dashed part of the orbit path shows where the satellite is in the earth's shadow,  

DLR